Wetbulb
50.00 50.08 50.31 49.79 48.81 47.47 46.84 46.37 46.14 45.83 45.49 45.53 46.08 46.44 46.65 46.77 47.23 46.66 46.71 50.78 45.31 39.40 40.04 41.48 42.22 38.60 38.74 37.57 33.18 38.21 38.42 41.65 40.49 37.13 35.89 35.73 33.20 36.01 33.47 36.24 35.94 34.00 32.65 32.11 33.63 31.50 29.26 41.93 39.11 33.45 40.25 40.27 40.92 41.81
49.92 50.12 49.52 47.94 47.03 46.27 45.75 45.49 45.09 45.13 44.90 45.08 45.50 45.94 46.18 46.40 47.13 47.41 43.65 49.64 50.41 42.71 39.85 46.53 46.48 46.56 44.60 43.36 39.33 38.74 38.59 39.08 40.22 37.92 38.59 38.95 34.37 36.76 34.17 31.79 41.03 34.13 36.55 34.15 33.31 34.35 41.88 42.88 40.65 41.18 41.56 41.09 42.08 43.09
49.94 49.52 47.91 46.82 45.97 45.36 45.08 44.38 44.21 44.77 44.59 44.79 45.12 45.41 45.62 46.22 46.19 46.91 45.97 48.64 47.04 40.95 40.49 43.77 44.87 48.95 49.50 48.14 48.06 37.99 40.22 43.50 43.38 43.10 38.57 37.69 32.83 38.48 35.22 36.70 37.53 40.63 41.74 37.40 36.27 40.41 40.97 42.52 43.15 44.32 43.85 43.45 45.24 46.29
49.40 47.75 46.39 45.53 44.95 44.67 44.40 44.01 43.79 44.14 44.08 44.47 44.87 45.44 45.44 45.77 45.78 45.89 45.14 48.21 46.43 42.07 34.97 42.44 49.18 47.44 50.94 49.87 48.02 47.56 47.36 47.67 47.25 43.38 38.71 37.36 36.12 41.35 38.01 40.53 38.36 41.43 41.61 39.61 37.69 40.41 42.15 42.56 43.47 44.61 44.54 45.41 44.63 47.48
47.03 46.08 45.10 44.55 44.32 44.09 43.86 43.67 43.65 43.89 44.30 44.89 45.37 46.47 46.51 46.46 46.45 46.04 44.97 45.77 46.56 41.02 36.21 38.86 45.43 49.28 50.02 49.84 47.44 47.37 45.70 44.43 41.57 39.08 38.30 36.24 39.69 40.37 40.61 40.66 40.57 44.04 40.88 37.38 36.88 40.99 41.49 41.69 43.82 44.07 43.45 44.02 44.80 46.65
45.40 44.55 44.08 43.96 43.77 43.52 43.35 43.29 43.52 43.65 44.64 44.89 46.01 46.38 46.56 46.98 46.89 45.45 40.11 46.45 47.04 45.75 38.06 34.57 47.23 46.43 48.68 49.12 47.80 46.31 44.83 42.60 40.48 40.05 40.13 41.51 44.53 41.44 37.27 38.01 43.46 45.16 46.30 46.54 41.28 45.38 44.35 44.68 44.35 43.88 43.10 45.00 46.41 46.49
44.11 43.32 43.21 43.42 43.37 43.39 43.12 43.15 43.47 43.94 44.39 45.10 46.00 46.89 46.93 47.05 47.28 41.25 42.50 45.14 48.15 46.79 38.82 35.22 38.21 47.59 47.73 47.65 45.26 43.70 44.67 42.90 42.03 40.60 39.89 41.50 43.55 42.57 39.15 38.59 44.47 45.36 46.50 46.88 47.14 45.44 43.55 44.23 41.63 43.12 43.47 45.39 46.34 45.88
42.81 42.56 42.86 42.86 42.97 42.82 42.85 43.45 43.60 44.14 45.13 46.46 46.62 46.23 46.25 47.03 46.78 43.27 46.78 47.68 47.58 42.93 41.34 35.10 36.99 43.42 48.71 45.03 42.98 45.56 41.98 42.06 42.36 41.53 43.19 43.79 45.13 43.84 37.89 44.28 45.16 45.66 46.43 46.20 46.66 46.74 45.75 45.77 43.77 42.59 43.71 44.38 43.15 43.83
42.30 42.22 42.41 42.38 42.22 42.16 42.55 42.95 44.03 45.53 45.17 45.70 45.52 45.15 48.18 45.94 42.41 45.75 48.76 49.54 46.88 42.48 36.57 37.15 34.81 37.57 47.54 46.82 48.75 45.44 45.09 38.69 44.37 39.61 40.87 45.34 42.87 38.70 43.62 43.97 44.88 45.64 45.53 45.57 47.20 47.31 45.79 44.17 42.28 41.79 42.10 42.30 41.98 42.72
41.84 41.99 41.98 41.97 41.72 42.12 42.47 43.64 45.05 44.67 44.65 44.54 44.87 45.09 43.40 44.52 45.22 47.20 45.19 41.71 40.15 40.49 39.95 36.55 41.44 37.49 44.45 44.10 44.51 44.48 43.18 39.49 37.67 42.34 46.33 41.62 40.96 46.05 47.25 47.23 48.41 47.42 47.82 47.61 45.24 43.82 44.26 42.94 41.54 41.31 41.37 42.28 42.74 42.88
41.74 41.42 41.57 41.25 41.66 42.06 42.82 44.16 44.33 43.99 44.79 42.34 38.07 39.08 43.57 46.07 46.27 43.27 39.17 38.31 37.28 35.15 38.25 38.74 40.17 37.17 45.13 38.97 39.72 45.94 41.28 41.98 36.38 41.09 40.79 38.07 39.20 45.48 47.48 48.11 48.62 48.56 48.82 48.65 48.51 47.85 46.83 44.93 42.16 41.54 41.28 42.21 42.67 42.99
41.27 41.19 41.10 41.35 41.51 41.92 42.40 43.84 43.49 42.65 40.02 40.75 40.91 42.21 41.81 40.78 40.44 36.56 35.73 38.84 38.16 36.93 42.09 40.95 42.30 40.67 42.27 46.74 42.31 43.51 37.81 41.63 34.76 45.28 40.14 37.02 44.03 47.14 46.97 47.30 48.53 48.48 48.72 48.54 48.87 47.50 47.12 46.01 43.73 42.98 43.15 41.32 42.37 43.30
41.30 41.42 41.25 41.47 41.76 42.06 42.23 43.00 42.98 42.78 43.52 43.58 38.27 35.61 36.12 37.62 31.15 30.04 29.60 32.88 35.04 41.77 42.92 41.56 39.25 39.80 40.60 43.74 41.99 40.36 37.33 37.98 45.17 39.43 38.50 42.57 46.97 48.43 48.04 48.80 48.63 49.80 49.11 49.06 48.61 48.41 47.45 46.02 45.49 43.87 42.63 41.95 42.52 42.53
41.32 41.76 41.69 41.85 42.10 41.96 42.03 42.38 42.53 42.69 41.20 36.14 33.50 30.52 31.30 31.65 32.88 36.44 37.08 37.18 41.49 43.22 41.16 41.59 40.74 38.56 40.88 39.25 39.74 37.22 41.22 42.18 36.14 34.08 36.58 44.41 46.25 48.18 48.65 49.24 48.99 48.29 48.52 48.76 48.48 47.57 46.53 45.45 44.98 44.41 43.75 42.34 41.09 40.52
41.48 41.65 41.82 42.12 42.00 41.74 42.27 42.32 42.48 42.97 39.23 32.90 34.26 27.75 32.60 38.52 39.63 39.20 40.18 40.50 42.47 43.67 42.18 40.71 41.59 39.22 33.80 34.34 38.13 39.77 36.91 34.47 37.20 38.19 43.19 46.35 49.14 49.06 48.73 48.55 48.77 48.78 49.46 48.97 49.12 47.65 46.28 45.79 45.14 44.03 43.87 42.84 40.98 40.20
41.03 41.30 42.25 40.99 41.14 41.95 42.15 42.74 43.08 39.50 35.95 34.23 33.23 30.92 35.82 35.47 36.16 35.69 36.88 37.53 41.34 40.83 41.06 41.03 38.10 36.93 36.26 37.35 36.07 36.17 35.83 35.13 39.93 44.91 46.35 48.37 49.46 49.24 49.28 49.80 49.76 49.71 49.46 49.66 49.70 48.65 47.36 46.04 45.27 44.90 44.17 43.24 41.00 40.05
40.46 40.98 39.77 40.93 41.89 42.52 42.61 39.77 37.54 33.40 31.78 31.75 33.67 37.70 36.57 36.21 35.69 37.94 38.26 38.13 41.62 39.95 36.94 39.86 35.03 34.02 36.75 33.93 34.23 40.85 38.52 43.63 46.09 46.89 48.80 49.20 50.11 49.80 50.46 50.10 50.04 50.08 49.93 50.54 49.80 48.90 47.17 46.97 47.57 46.09 43.53 42.94 41.62 40.23
40.78 42.54 40.92 41.90 42.25 41.77 42.50 41.69 36.61 33.14 28.85 34.44 32.87 35.29 37.31 38.15 37.10 38.43 40.20 41.90 41.30 40.39 40.19 37.80 41.94 37.43 35.69 33.68 37.07 41.98 44.38 46.88 48.31 48.88 48.80 50.14 50.94 51.17 51.00 50.73 50.75 50.44 50.03 50.75 50.46 49.24 48.35 46.43 46.51 45.95 45.72 44.93 44.57 42.58
41.26 41.90 41.46 41.36 41.52 38.94 35.49 37.33 39.30 31.56 33.61 35.86 37.08 37.63 38.01 38.61 40.30 41.14 41.17 42.06 43.36 42.53 40.03 40.35 37.13 36.72 37.74 40.18 39.10 41.80 43.14 44.23 45.23 47.62 49.10 50.97 51.56 50.98 51.11 51.58 51.36 50.72 50.81 51.21 50.84 50.18 49.14 47.69 47.25 47.35 47.02 46.01 44.26 44.27
41.09 40.37 40.39 40.40 40.93 38.55 31.66 36.27 41.04 34.48 31.53 35.41 37.54 36.64 36.90 37.71 39.75 40.38 40.81 40.99 40.17 39.15 37.66 36.89 36.65 37.17 38.60 39.54 41.36 41.57 42.83 44.71 45.11 43.94 47.06 50.53 51.61 51.64 51.48 51.70 51.33 51.65 51.31 51.16 51.24 45.64 48.99 47.34 48.02 48.10 47.33 45.70 44.80 43.84
40.16 40.52 40.24 40.96 41.05 39.67 36.50 35.88 35.11 37.03 36.01 34.81 37.33 37.00 36.41 39.21 37.98 37.96 38.93 41.60 39.62 36.67 35.66 37.45 37.65 39.46 41.79 42.88 44.24 43.52 42.74 42.86 43.52 45.93 46.25 46.60 49.87 51.00 52.36 52.64 52.79 51.91 50.92 50.87 50.03 48.64 46.47 48.45 47.56 47.18 47.31 46.03 45.12 44.43
41.30 39.37 40.78 40.61 36.71 35.84 35.75 39.60 35.60 37.24 34.21 35.56 35.90 36.28 33.97 34.94 35.68 36.96 40.17 36.48 35.01 34.41 36.39 36.40 37.31 38.52 39.56 40.35 41.28 42.25 42.46 42.94 44.06 45.78 43.92 45.15 47.79 49.42 51.03 51.94 51.06 50.60 50.99 50.96 51.11 50.01 49.96 49.30 48.30 47.81 46.77 45.11 44.33 44.85
39.36 40.04 39.56 36.91 32.10 32.54 31.41 40.34 32.81 34.54 30.64 32.28 34.77 32.56 33.87 34.64 36.23 40.21 33.97 34.05 34.20 36.13 36.59 36.32 37.21 38.80 39.15 40.11 40.67 41.18 42.29 41.69 41.70 42.73 44.54 46.12 49.20 50.49 51.07 52.05 51.44 51.37 50.82 51.59 52.28 51.68 50.75 43.25 44.44 47.14 46.52 46.34 45.32 43.44
38.98 35.84 31.13 31.43 32.25 28.65 34.74 32.74 36.31 32.80 32.91 30.84 30.09 28.82 31.44 33.25 36.84 34.75 29.66 31.42 33.98 35.53 34.63 35.09 35.91 35.94 37.40 37.87 36.56 38.13 38.91 40.02 40.43 41.28 43.15 43.37 44.86 48.58 51.16 51.86 52.23 52.18 52.99 53.29 52.76 51.70 51.08 48.87 44.11 46.77 46.64 45.90 45.57 45.15
29.43 27.47 30.66 24.77 32.17 28.66 27.64 28.72 28.42 30.09 26.39 29.62 27.55 29.00 31.37 34.66 31.17 30.10 28.13 31.09 32.67 33.49 33.79 34.47 34.82 35.35 34.36 35.79 36.60 37.16 38.27 37.29 36.14 36.36 41.91 42.72 43.42 47.66 50.40 52.33 51.56 51.45 52.99 52.47 51.83 51.45 50.37 49.51 48.31 47.53 46.66 46.28 45.79 45.06
23.58 27.86 27.87 29.23 30.83 28.28 30.36 25.01 26.19 27.29 28.49 26.97 29.53 33.65 35.63 32.49 28.49 26.76 29.23 31.01 31.22 32.19 32.71 32.26 32.70 33.54 33.96 34.51 33.72 33.92 34.61 36.16 36.03 36.96 39.77 41.04 39.97 39.80 43.06 47.42 49.02 50.58 52.64 52.80 52.44 51.20 50.04 48.99 48.55 47.51 46.61 44.66 37.18 44.61
23.64 25.76 32.10 36.32 35.04 33.80 31.59 33.57 33.68 31.52 26.53 27.05 31.07 30.46 31.31 25.77 25.84 29.47 33.44 33.69 32.49 33.99 35.45 35.63 34.63 34.23 34.43 34.88 35.21 35.72 36.94 35.77 35.33 37.64 41.33 40.06 40.11 39.61 39.06 38.63 39.25 41.37 47.43 50.64 52.36 52.10 50.89 49.51 48.72 48.07 47.58 46.95 45.73 45.85
31.64 31.88 28.23 31.78 32.27 33.61 27.15 28.22 27.68 27.13 30.44 34.95 33.34 27.43 24.18 23.97 25.86 31.20 32.74 34.38 34.68 36.02 35.37 35.70 35.48 35.50 35.64 35.99 36.64 35.93 35.67 36.76 36.74 37.81 40.27 39.13 38.62 38.44 37.81 39.66 40.57 35.31 43.45 49.26 51.62 52.43 52.31 51.03 49.77 48.55 47.90 46.78 45.72 46.71
30.91 34.37 33.91 29.36 29.57 29.67 29.83 29.46 31.45 35.05 36.95 35.54 31.25 29.78 29.40 31.45 33.00 31.70 33.60 34.17 34.60 33.72 32.58 32.76 33.31 35.11 36.06 36.98 36.73 36.00 34.56 33.92 32.00 30.82 31.09 31.87 32.02 33.72 36.62 37.44 38.27 39.48 41.00 44.49 36.28 38.47 49.90 50.58 50.18 49.27 47.21 47.07 47.30 47.15
31.59 35.71 31.37 29.84 27.91 29.25 33.72 36.44 36.07 37.74 37.18 36.65 36.58 33.32 30.81 30.28 32.08 34.57 33.46 32.61 31.21 30.86 31.78 32.55 33.11 32.51 31.97 31.97 32.31 34.07 34.90 33.41 32.46 30.42 28.88 29.44 30.56 34.51 36.38 36.90 38.47 39.18 39.84 40.88 45.52 48.24 35.25 45.14 41.64 46.89 45.37 45.53 45.97 45.67
35.89 34.69 31.07 31.89 31.13 36.25 37.95 39.91 39.67 39.29 36.02 35.64 36.65 34.16 30.62 29.52 31.48 33.18 31.73 32.47 32.69 32.40 31.39 30.67 31.77 31.45 30.61 30.05 29.99 30.13 30.53 33.73 33.48 33.31 32.43 33.20 34.16 34.57 34.92 36.22 37.06 38.84 40.18 40.32 41.71 42.93 43.43 44.83 46.34 46.30 46.31 45.28 44.68 41.09
33.90 31.82 31.31 28.82 32.27 37.83 39.27 37.71 36.67 34.51 33.87 32.93 31.86 32.85 31.69 30.39 27.89 29.42 30.78 30.80 30.07 28.80 29.09 29.85 29.26 29.77 32.67 33.16 32.90 32.74 30.35 32.64 32.12 31.43 30.94 31.55 32.36 33.06 34.94 35.41 37.14 36.93 37.78 37.68 36.24 37.71 40.10 41.90 42.58 43.55 43.78 42.92 41.61 39.03
33.16 33.13 32.69 32.13 31.95 30.47 35.01 33.56 32.33 30.43 30.83 30.98 30.37 30.85 30.04 28.88 25.22 29.41 32.32 32.21 30.55 29.57 29.91 30.72 32.26 33.42 33.43 32.68 32.54 32.71 31.57 33.28 31.12 28.87 28.42 28.56 29.16 29.29 31.99 34.05 35.82 35.30 34.25 33.63 34.10 34.21 32.44 31.69 32.49 34.03 35.45 36.99 37.23 36.81
MSLP
1027.22 1026.95 1026.76 1026.53 1026.26 1025.98 1025.67 1025.41 1025.07 1024.67 1024.35 1023.95 1023.62 1023.23 1022.89 1022.62 1022.28 1022.19 1020.93 1020.46 1020.63 1019.75 1018.00 1017.62 1017.27 1017.23 1016.97 1017.00 1016.70 1015.76 1014.80 1013.23 1012.71 1012.11 1011.63 1010.93 1010.44 1009.41 1009.25 1008.34 1007.58 1007.68 1007.49 1007.23 1006.97 1006.03 1005.44 1005.85 1006.11 1006.38 1005.32 1004.62 1004.31 1003.32
1026.77 1026.44 1026.33 1026.21 1025.96 1025.66 1025.38 1025.08 1024.79 1024.41 1024.10 1023.75 1023.31 1022.94 1022.58 1022.24 1021.97 1021.71 1020.93 1019.76 1020.21 1019.79 1017.91 1016.82 1016.25 1016.02 1015.87 1015.95 1016.46 1016.28 1015.28 1014.63 1013.97 1013.56 1013.14 1012.18 1011.41 1010.32 1009.51 1008.03 1007.12 1007.00 1007.40 1007.76 1007.96 1006.93 1005.94 1005.79 1005.87 1005.91 1005.39 1004.57 1003.72 1002.92
1026.25 1026.05 1025.97 1025.88 1025.65 1025.38 1025.07 1024.74 1024.43 1024.11 1023.76 1023.37 1022.93 1022.53 1022.24 1021.91 1021.53 1021.34 1020.57 1019.96 1019.99 1019.13 1017.11 1014.78 1013.51 1013.54 1014.24 1014.60 1014.97 1015.66 1014.96 1014.20 1013.89 1014.46 1014.15 1013.33 1012.32 1011.15 1009.48 1008.04 1007.37 1006.49 1006.56 1006.95 1006.87 1005.80 1005.68 1005.44 1005.31 1004.62 1004.60 1003.94 1003.20 1002.16
1025.73 1025.78 1025.63 1025.50 1025.26 1025.04 1024.73 1024.37 1023.99 1023.67 1023.30 1022.86 1022.37 1021.89 1021.54 1021.24 1021.05 1020.84 1020.14 1019.46 1019.64 1019.06 1017.54 1013.85 1013.28 1012.87 1012.87 1013.54 1014.06 1014.06 1013.39 1013.91 1013.93 1014.47 1014.17 1013.35 1012.32 1011.05 1009.66 1008.19 1007.20 1006.22 1005.93 1005.80 1005.99 1005.75 1005.17 1004.85 1004.93 1004.55 1003.98 1003.54 1002.54 1001.07
1025.36 1025.42 1025.28 1025.14 1024.84 1024.58 1024.30 1023.91 1023.55 1023.17 1022.75 1022.17 1021.68 1021.26 1020.94 1020.67 1020.44 1020.17 1019.54 1018.85 1018.88 1019.16 1017.21 1014.68 1013.37 1011.62 1011.74 1011.96 1012.81 1013.29 1013.65 1013.89 1014.21 1014.18 1013.58 1012.76 1011.92 1010.63 1009.43 1008.17 1005.78 1004.89 1005.19 1005.72 1005.60 1005.50 1005.06 1004.82 1004.55 1004.55 1003.89 1003.21 1002.16 1000.88
1024.99 1024.98 1024.92 1024.77 1024.53 1024.21 1023.87 1023.41 1022.97 1022.54 1022.01 1021.54 1020.93 1020.38 1020.11 1019.95 1019.84 1019.67 1018.06 1018.16 1018.20 1018.79 1018.07 1015.78 1012.14 1011.22 1011.11 1011.46 1011.92 1012.43 1013.06 1013.75 1014.32 1013.68 1012.67 1011.75 1010.76 1010.21 1008.86 1006.66 1004.24 1004.49 1004.77 1005.09 1005.39 1005.06 1004.59 1004.29 1004.26 1004.37 1003.84 1003.09 1002.00 1000.95
1024.65 1024.56 1024.46 1024.35 1024.13 1023.76 1023.44 1022.97 1022.46 1021.90 1021.33 1020.69 1020.10 1019.51 1019.07 1018.94 1019.12 1018.89 1017.63 1018.22 1018.14 1018.34 1017.80 1015.69 1012.69 1010.39 1010.70 1010.97 1011.66 1012.27 1012.69 1012.87 1013.25 1012.81 1011.79 1010.55 1009.40 1009.45 1007.92 1005.72 1003.89 1004.15 1004.42 1004.57 1004.67 1004.70 1004.09 1004.09 1003.84 1004.00 1003.56 1003.07 1002.03 1001.01
1024.35 1024.21 1024.07 1023.98 1023.70 1023.39 1023.05 1022.53 1021.95 1021.31 1020.57 1019.79 1019.09 1018.38 1017.88 1017.83 1018.28 1018.19 1017.31 1017.48 1018.10 1018.06 1017.37 1015.54 1012.57 1010.07 1010.16 1010.03 1010.62 1011.35 1011.70 1012.18 1011.97 1011.30 1010.30 1008.77 1008.05 1007.85 1006.45 1004.35 1003.96 1004.03 1004.15 1004.21 1004.08 1004.50 1004.29 1004.09 1004.11 1003.71 1003.22 1002.84 1002.06 1001.14
1024.11 1023.88 1023.69 1023.60 1023.30 1022.99 1022.62 1022.06 1021.40 1020.66 1019.85 1018.95 1018.06 1017.46 1017.26 1017.27 1017.31 1016.72 1016.76 1016.87 1017.22 1017.69 1016.38 1014.67 1012.57 1010.19 1009.55 1009.20 1009.68 1010.65 1010.96 1010.73 1010.49 1009.91 1008.82 1007.63 1006.36 1005.77 1004.57 1003.83 1003.78 1003.91 1004.23 1004.28 1003.87 1003.77 1004.11 1004.22 1004.20 1003.92 1003.10 1002.66 1002.62 1001.88
1023.76 1023.54 1023.40 1023.26 1022.94 1022.63 1022.18 1021.51 1020.93 1020.29 1019.32 1018.21 1017.20 1016.63 1015.89 1016.57 1016.70 1016.35 1016.20 1016.33 1016.49 1016.28 1015.59 1013.71 1012.08 1010.70 1009.73 1009.00 1008.62 1009.13 1009.78 1009.60 1008.88 1007.72 1007.26 1006.71 1005.16 1004.30 1004.06 1003.97 1003.81 1004.02 1004.32 1004.33 1004.17 1004.10 1004.32 1004.37 1004.62 1004.48 1003.80 1003.22 1003.41 1003.06
1023.42 1023.21 1023.09 1022.91 1022.58 1022.29 1021.77 1021.27 1020.80 1020.12 1018.91 1018.16 1017.46 1016.65 1016.47 1016.24 1015.59 1015.12 1014.61 1014.59 1014.54 1014.16 1013.47 1012.17 1011.18 1010.69 1010.09 1009.68 1008.88 1008.44 1008.39 1008.09 1007.26 1006.41 1006.21 1005.33 1004.18 1003.33 1003.35 1003.52 1003.86 1004.17 1004.46 1004.45 1004.45 1004.47 1004.76 1004.79 1004.87 1004.93 1004.59 1003.77 1003.51 1003.56
1023.08 1022.84 1022.71 1022.49 1022.19 1021.87 1021.46 1021.07 1020.72 1020.14 1019.96 1019.76 1019.49 1018.48 1017.31 1015.85 1014.39 1013.78 1012.89 1012.07 1011.97 1010.67 1009.89 1009.76 1010.03 1010.61 1009.86 1009.31 1008.99 1008.93 1008.63 1007.46 1006.17 1006.22 1005.27 1004.17 1003.28 1003.16 1003.25 1003.43 1003.81 1004.10 1004.41 1004.51 1004.66 1004.64 1004.87 1005.02 1005.08 1004.70 1004.88 1005.06 1004.72 1004.44
1022.67 1022.46 1022.29 1021.99 1021.67 1021.32 1021.10 1020.87 1020.62 1020.36 1019.55 1018.39 1018.73 1017.83 1016.47 1014.61 1013.83 1012.28 1011.23 1010.74 1010.41 1009.63 1009.30 1010.03 1010.42 1010.51 1010.37 1009.67 1008.96 1008.83 1007.73 1006.70 1006.46 1005.52 1004.10 1003.39 1003.11 1003.16 1003.20 1003.28 1003.95 1004.12 1004.38 1004.49 1004.65 1004.85 1005.11 1005.33 1005.31 1005.48 1005.29 1005.65 1005.57 1005.19
1022.27 1022.10 1021.85 1021.66 1021.36 1021.05 1020.85 1020.66 1020.43 1019.97 1019.02 1017.94 1017.24 1016.20 1014.98 1013.23 1012.44 1010.94 1010.41 1010.28 1010.11 1009.60 1010.03 1010.10 1010.04 1010.37 1009.98 1009.52 1008.93 1007.83 1006.86 1006.74 1005.84 1004.81 1003.58 1002.95 1003.02 1002.95 1003.23 1003.32 1003.89 1004.13 1004.42 1004.65 1004.73 1005.02 1005.15 1005.49 1005.87 1006.39 1006.50 1006.88 1006.75 1006.45
1021.82 1021.55 1021.33 1021.09 1021.08 1020.84 1020.56 1020.31 1020.09 1019.56 1018.83 1017.72 1016.59 1015.06 1013.39 1012.31 1011.59 1011.28 1011.05 1010.79 1010.43 1010.09 1009.74 1009.82 1009.19 1009.66 1009.47 1009.38 1008.57 1007.48 1006.67 1006.08 1005.35 1004.41 1003.68 1003.58 1003.46 1003.29 1003.37 1003.82 1003.80 1004.20 1004.41 1004.74 1004.96 1005.04 1005.37 1005.85 1006.05 1006.50 1006.99 1007.45 1007.63 1007.65
1021.35 1021.10 1020.61 1020.87 1020.81 1020.52 1020.13 1019.62 1019.16 1019.58 1019.13 1017.85 1016.21 1014.71 1013.29 1012.46 1011.61 1011.61 1011.67 1011.59 1011.19 1010.33 1009.73 1009.17 1008.85 1008.74 1008.68 1008.56 1008.13 1006.88 1006.09 1005.66 1005.22 1004.68 1004.06 1004.04 1003.84 1003.74 1003.89 1003.89 1004.03 1004.19 1004.65 1004.96 1005.28 1005.51 1005.95 1006.28 1006.45 1006.88 1007.58 1007.93 1008.43 1008.75
1021.02 1020.41 1020.72 1020.62 1020.35 1019.94 1019.43 1019.38 1019.34 1019.17 1018.48 1017.13 1015.23 1014.36 1013.62 1012.86 1012.19 1011.46 1010.95 1011.07 1010.76 1010.00 1008.83 1008.16 1008.27 1008.20 1008.70 1008.58 1008.00 1006.87 1006.11 1005.31 1004.79 1004.62 1004.37 1004.45 1004.14 1004.05 1004.08 1004.15 1004.38 1004.67 1004.86 1005.26 1005.64 1005.81 1006.52 1006.75 1006.70 1007.02 1007.61 1008.29 1008.77 1009.15
1020.35 1020.23 1020.49 1020.26 1019.92 1019.15 1018.97 1018.85 1018.75 1018.23 1017.30 1015.79 1014.66 1013.61 1013.27 1012.99 1012.17 1011.24 1010.74 1010.45 1010.26 1009.56 1009.24 1008.62 1008.72 1008.04 1008.18 1008.23 1007.77 1007.61 1006.97 1006.11 1005.44 1005.05 1004.72 1004.54 1004.32 1004.18 1004.13 1004.20 1004.45 1004.85 1005.24 1005.44 1005.76 1006.35 1006.76 1006.64 1006.42 1007.06 1007.85 1008.30 1008.39 1009.09
1020.23 1020.21 1020.17 1020.01 1019.67 1019.47 1018.87 1018.38 1018.20 1017.12 1015.93 1015.06 1014.12 1013.64 1013.00 1012.46 1011.83 1011.33 1010.82 1010.49 1010.33 1010.31 1010.12 1009.40 1009.04 1008.93 1009.30 1009.60 1009.48 1008.67 1007.91 1007.47 1006.62 1005.85 1004.96 1004.46 1004.34 1004.17 1004.16 1004.28 1004.39 1004.84 1005.32 1005.75 1006.08 1006.18 1006.54 1006.55 1006.84 1007.48 1007.71 1008.21 1008.54 1008.86
1020.16 1020.12 1019.96 1019.72 1019.53 1018.84 1018.54 1017.83 1017.83 1017.02 1015.64 1014.65 1014.02 1013.27 1012.72 1011.87 1011.31 1010.97 1010.53 1010.38 1010.39 1010.56 1010.53 1010.78 1011.10 1011.26 1010.97 1010.79 1010.41 1009.91 1009.38 1008.64 1007.74 1006.50 1005.16 1004.66 1004.14 1004.37 1004.24 1004.06 1004.12 1004.54 1005.21 1005.72 1005.96 1006.21 1006.45 1006.92 1007.67 1007.96 1008.28 1008.75 1008.98 1009.24
1019.62 1019.64 1019.51 1019.20 1018.99 1018.92 1018.47 1017.60 1016.93 1016.34 1015.64 1014.75 1013.92 1013.30 1012.30 1011.75 1011.25 1011.12 1010.75 1010.73 1010.72 1011.70 1011.98 1012.43 1012.34 1012.16 1011.78 1011.26 1010.75 1010.52 1010.05 1009.44 1008.37 1007.06 1006.10 1005.44 1004.89 1004.52 1003.97 1004.10 1004.04 1004.28 1004.52 1005.07 1005.65 1006.19 1006.73 1007.01 1007.75 1008.41 1008.67 1009.03 1009.64 1009.98
1019.23 1019.58 1019.17 1019.22 1018.94 1018.77 1018.38 1017.70 1017.27 1016.66 1016.23 1014.76 1013.67 1013.23 1012.65 1011.92 1011.36 1011.49 1012.31 1012.05 1013.49 1014.57 1014.51 1014.09 1013.51 1012.97 1012.43 1011.90 1011.52 1010.97 1010.57 1010.02 1009.11 1007.81 1006.88 1006.27 1005.43 1004.63 1004.26 1004.10 1003.99 1003.90 1004.13 1004.34 1004.84 1005.80 1006.40 1007.29 1007.94 1008.42 1008.98 1009.74 1009.94 1010.15
1019.58 1019.27 1018.95 1019.08 1018.82 1018.53 1018.03 1017.49 1016.83 1015.96 1015.35 1014.58 1013.94 1013.15 1012.75 1012.62 1012.55 1012.81 1014.01 1015.02 1015.79 1016.30 1015.92 1015.43 1014.85 1014.15 1013.50 1012.91 1012.31 1011.86 1011.34 1010.60 1009.77 1009.04 1008.23 1007.34 1006.15 1005.33 1004.46 1003.88 1004.05 1003.73 1003.63 1004.03 1004.45 1005.07 1006.03 1007.20 1008.06 1008.15 1008.91 1009.31 1009.93 1010.56
1019.57 1018.99 1018.73 1018.61 1018.54 1018.08 1017.62 1016.81 1016.59 1016.20 1015.64 1014.79 1014.26 1013.74 1013.83 1014.30 1014.24 1014.06 1015.19 1016.35 1017.01 1016.80 1016.45 1016.10 1015.55 1014.77 1014.09 1013.55 1013.06 1012.66 1012.23 1011.71 1010.96 1010.14 1009.32 1008.51 1007.35 1006.07 1005.27 1004.43 1004.06 1003.89 1003.73 1003.70 1004.41 1005.06 1006.13 1007.04 1007.76 1008.25 1008.59 1009.04 1009.57 1010.08
1019.35 1019.51 1019.03 1018.63 1018.29 1018.07 1017.29 1016.63 1016.47 1015.96 1015.43 1015.11 1014.75 1014.52 1014.79 1015.27 1015.20 1015.59 1016.47 1017.39 1017.50 1017.52 1017.38 1016.96 1016.33 1015.64 1015.05 1014.51 1014.00 1013.52 1013.13 1012.69 1011.91 1010.96 1009.96 1009.30 1008.38 1006.92 1005.57 1005.19 1004.85 1004.76 1004.47 1004.04 1004.16 1004.84 1005.83 1006.68 1007.33 1007.84 1008.41 1008.98 1009.50 1010.15
1018.62 1018.69 1018.40 1017.53 1017.43 1017.35 1016.83 1016.51 1016.22 1015.84 1015.55 1015.22 1014.90 1014.79 1015.31 1015.54 1016.06 1017.05 1017.95 1018.62 1018.64 1018.47 1018.17 1017.68 1017.07 1016.38 1015.87 1015.59 1015.06 1014.39 1013.95 1013.46 1012.76 1011.73 1010.95 1010.34 1009.87 1009.10 1007.79 1006.30 1005.59 1005.60 1005.56 1004.89 1004.40 1004.81 1005.50 1006.28 1006.84 1007.47 1008.14 1008.89 1009.67 1009.90
1018.02 1017.59 1017.30 1017.18 1017.02 1016.94 1016.67 1016.37 1016.15 1015.92 1015.56 1015.14 1014.98 1015.14 1015.43 1016.35 1017.29 1018.38 1018.87 1019.31 1019.32 1019.08 1018.67 1018.20 1017.85 1017.29 1016.78 1016.26 1015.81 1015.36 1014.74 1014.16 1013.56 1012.70 1011.92 1011.64 1011.07 1010.69 1010.12 1009.39 1008.50 1008.22 1007.05 1005.82 1005.03 1004.80 1005.12 1005.83 1006.37 1007.02 1007.59 1008.37 1009.15 1009.53
1017.02 1016.67 1016.38 1016.60 1016.58 1016.76 1016.68 1016.45 1016.01 1015.50 1015.22 1015.32 1015.42 1015.83 1016.91 1017.92 1018.72 1019.32 1019.62 1019.91 1019.78 1019.25 1018.87 1018.45 1018.24 1017.81 1017.21 1016.73 1016.31 1015.92 1015.29 1014.64 1014.04 1013.15 1012.40 1012.24 1011.80 1011.25 1011.02 1010.05 1009.27 1008.78 1007.77 1006.40 1005.45 1005.12 1005.11 1005.52 1006.03 1006.72 1007.28 1007.91 1008.66 1009.16
1016.45 1016.23 1016.31 1016.24 1016.31 1016.38 1016.18 1015.81 1015.39 1015.25 1015.38 1015.44 1015.72 1016.60 1017.99 1019.04 1019.75 1020.04 1020.04 1020.07 1019.83 1019.54 1019.19 1018.79 1018.54 1018.06 1017.26 1016.61 1016.48 1016.47 1016.25 1015.64 1014.84 1014.10 1013.84 1013.34 1012.74 1012.00 1011.51 1010.82 1010.02 1009.44 1008.90 1007.78 1006.69 1006.61 1005.55 1005.64 1006.04 1006.51 1007.05 1007.78 1008.36 1009.03
1015.50 1015.75 1015.86 1015.81 1015.71 1015.14 1014.93 1015.17 1015.18 1015.68 1015.95 1016.05 1016.57 1017.82 1018.93 1019.89 1020.47 1020.43 1020.30 1020.27 1020.17 1020.00 1019.80 1019.47 1019.17 1018.77 1018.14 1017.68 1017.25 1016.86 1016.89 1016.91 1016.72 1016.46 1015.79 1015.06 1014.59 1013.83 1012.89 1012.00 1011.07 1010.51 1009.82 1009.23 1007.85 1006.56 1006.92 1006.68 1007.13 1007.32 1007.69 1007.95 1008.30 1008.87
1014.99 1015.32 1015.51 1015.30 1014.80 1014.33 1014.32 1014.56 1014.85 1015.24 1016.45 1016.83 1017.07 1017.43 1018.35 1019.81 1020.43 1020.77 1021.03 1020.71 1020.41 1020.32 1020.33 1020.01 1019.65 1019.60 1019.24 1018.93 1018.61 1018.10 1017.50 1017.33 1017.27 1016.98 1016.78 1016.01 1015.28 1014.53 1013.80 1013.02 1012.30 1011.37 1010.51 1009.66 1008.68 1008.19 1008.01 1007.46 1007.27 1007.38 1007.65 1008.03 1008.48 1009.07
1014.89 1014.90 1014.91 1014.84 1014.44 1014.31 1014.37 1014.31 1014.47 1015.41 1016.30 1016.88 1017.37 1018.04 1018.81 1019.24 1019.94 1021.07 1021.84 1021.57 1021.23 1021.10 1021.09 1020.81 1020.49 1020.22 1019.90 1019.65 1019.44 1019.14 1019.08 1018.39 1018.06 1017.74 1017.29 1016.71 1015.94 1015.30 1014.45 1013.78 1012.94 1012.33 1011.56 1011.03 1010.40 1009.86 1009.31 1008.75 1008.48 1008.40 1008.61 1008.76 1009.51 1010.18
1014.46 1014.54 1014.80 1014.76 1014.65 1014.50 1014.48 1014.84 1015.05 1016.00 1016.74 1017.24 1017.88 1018.45 1019.02 1019.64 1020.52 1021.48 1021.98 1022.15 1022.08 1021.80 1021.56 1021.34 1020.94 1020.63 1020.51 1020.29 1019.97 1019.47 1019.20 1018.90 1018.77 1018.55 1018.18 1017.76 1017.28 1016.69 1015.69 1014.86 1014.14 1013.63 1013.31 1012.77 1012.02 1011.63 1011.70 1011.48 1011.15 1010.78 1010.55 1010.65 1010.84 1010.98
Wind_Speed
12 12 13 11 12 13 14 15 15 15 16 15 15 15 13 13 12 6 8 4 5 6 12 18 19 10 8 5 3 7 9 4 6 4 3 3 4 5 4 10 9 4 6 4 5 5 1 14 12 4 11 15 16 17
12 11 8 11 13 13 13 14 16 15 15 16 15 15 14 14 14 7 5 6 3 6 8 18 21 22 24 21 8 3 6 7 3 3 2 4 3 3 6 5 6 4 5 5 3 5 15 15 12 14 16 16 18 17
12 8 9 11 12 13 14 14 16 17 16 16 15 16 15 15 15 11 7 7 3 5 10 11 5 8 8 14 15 6 5 7 5 1 2 2 5 2 4 4 6 7 3 4 8 5 13 14 11 14 7 13 14 19
7 8 9 10 11 13 15 16 16 17 17 17 17 17 15 15 13 12 8 6 3 4 5 4 3 9 11 13 15 23 7 0 3 2 3 3 4 4 4 9 11 9 10 13 9 12 17 3 12 13 16 11 18 18
5 7 8 10 12 13 15 16 17 18 19 19 18 17 15 14 13 10 8 9 8 4 5 8 22 10 4 8 17 17 17 11 3 2 4 4 3 5 3 6 9 3 10 4 4 15 11 11 13 17 18 15 20 16
5 6 8 11 13 14 15 17 18 19 20 20 19 19 20 16 10 5 4 2 4 5 3 5 7 6 4 6 8 13 11 10 3 4 3 3 6 4 3 5 4 6 8 8 5 12 10 13 14 15 16 14 17 13
5 6 8 11 13 14 16 18 20 21 21 21 23 22 20 15 7 5 4 2 1 5 3 5 5 6 4 6 4 5 8 5 5 3 5 4 6 5 3 9 7 8 8 9 6 10 11 16 15 15 16 14 14 14
5 6 8 11 13 15 17 19 21 21 22 24 23 23 18 10 5 6 8 11 4 3 3 4 6 6 5 4 4 4 5 5 5 3 4 6 3 3 5 6 5 6 8 7 9 6 10 12 16 19 16 11 14 15
5 6 8 11 12 15 17 19 20 21 22 24 22 17 4 3 4 1 3 3 6 3 3 3 3 4 4 3 1 4 4 4 4 4 5 4 4 6 6 4 2 6 7 10 11 8 12 15 16 18 19 17 13 16
6 6 8 10 13 15 17 18 20 20 24 20 8 4 3 2 9 9 3 4 4 5 5 5 5 7 7 3 2 2 4 2 3 6 3 4 6 13 10 5 2 4 6 9 10 12 13 14 15 15 17 15 12 12
6 7 9 11 13 14 17 18 15 20 10 5 5 3 7 6 5 4 4 5 4 5 5 5 8 8 3 5 4 2 2 3 4 4 3 2 5 3 1 7 4 1 5 6 8 9 10 12 13 12 13 16 14 13
7 8 10 12 12 13 15 15 15 10 6 10 11 11 5 4 5 6 5 4 6 6 8 5 3 4 4 4 4 1 3 4 3 1 3 3 4 2 6 5 5 2 4 6 8 10 11 12 13 14 13 13 13 13
8 10 11 13 14 14 13 12 13 15 16 3 2 4 4 4 5 7 6 5 5 5 1 2 3 3 3 5 3 4 4 2 2 3 3 2 3 3 6 6 5 3 4 5 8 9 9 11 14 14 14 13 12 12
8 10 11 12 8 9 11 13 14 13 6 4 4 5 5 5 6 4 7 7 6 1 2 3 2 2 2 5 3 5 3 2 3 3 3 3 3 5 6 5 7 4 3 5 7 8 10 11 12 12 13 12 12 13
8 10 12 12 7 13 14 14 13 6 4 5 4 6 5 5 9 8 7 8 8 7 6 5 5 5 3 3 3 2 5 4 4 3 3 4 1 6 7 6 5 5 3 5 6 8 10 10 11 13 13 13 13 12
7 11 1 4 12 14 16 13 4 0 2 4 5 5 6 10 7 6 4 5 8 6 6 6 4 3 4 2 4 6 3 3 1 3 5 4 2 4 5 5 4 5 6 5 5 7 7 9 10 11 11 12 12 12
6 2 3 11 15 17 10 2 1 3 3 5 4 5 8 9 9 9 7 5 6 9 6 4 5 3 3 1 1 2 3 1 3 5 4 3 1 5 5 5 4 5 6 7 6 6 6 6 8 9 11 10 11 12
3 1 7 12 12 6 1 1 2 3 4 5 7 8 10 9 10 9 8 7 5 4 5 5 6 4 1 2 3 5 6 9 6 5 6 6 1 6 6 6 7 6 5 5 6 6 3 5 7 7 7 7 8 11
5 7 10 7 5 2 2 2 3 4 4 7 6 8 8 8 8 9 8 6 5 5 5 4 5 3 5 5 8 8 8 9 9 10 8 6 3 5 7 7 7 8 8 7 7 4 4 6 7 5 5 6 7 7
5 2 5 4 4 1 2 2 2 5 4 5 8 7 10 8 7 6 7 5 5 3 4 3 5 4 3 4 7 7 8 10 6 11 9 7 4 3 7 8 7 8 7 9 6 4 5 5 4 4 5 6 6 7
5 3 2 4 1 1 3 3 3 3 5 5 7 9 7 5 5 5 4 4 2 3 3 2 5 6 10 8 5 6 7 10 9 8 8 7 7 7 4 6 7 7 7 8 8 7 5 4 5 5 4 7 6 7
2 3 1 1 1 1 3 2 5 7 4 6 6 7 5 6 5 7 9 6 5 5 6 6 8 8 8 10 9 9 10 12 12 10 7 6 7 7 5 3 6 7 8 8 8 9 8 7 6 6 7 8 6 6
2 3 2 1 1 1 4 2 4 4 5 7 7 6 4 5 7 7 4 6 4 5 7 7 10 11 9 11 10 11 13 13 10 9 9 9 8 8 8 5 6 8 8 7 7 8 8 9 7 7 8 7 7 8
2 1 1 1 1 2 3 2 2 4 4 5 5 6 6 5 8 3 5 4 5 9 10 13 8 7 8 11 10 10 11 10 9 9 8 9 8 8 6 6 3 4 6 7 8 8 10 10 10 9 8 8 8 7
3 2 2 2 3 3 3 3 3 3 4 9 4 4 4 3 2 4 4 6 8 9 9 10 9 8 8 7 8 9 12 10 9 9 8 9 9 9 4 2 2 4 4 7 9 11 12 11 11 11 11 10 10 11
3 4 4 3 2 3 1 2 2 6 5 3 2 3 2 3 4 5 4 7 7 7 8 9 8 8 7 8 9 9 10 9 9 7 8 9 9 9 10 8 2 4 3 5 7 11 13 13 14 16 13 12 8 11
4 5 4 2 2 2 3 2 3 2 2 2 3 4 3 3 4 3 3 5 4 4 6 6 7 7 6 7 8 9 9 9 7 7 6 8 8 8 8 8 10 9 10 9 8 10 13 15 15 15 14 13 14 12
3 4 5 5 4 2 2 2 3 3 2 1 3 4 3 3 3 4 4 6 7 7 7 7 8 8 7 6 7 9 12 11 11 11 4 7 7 7 12 9 10 12 13 10 7 7 9 11 13 14 14 14 13 13
5 4 4 5 4 4 5 4 3 1 1 3 1 2 3 3 3 3 4 6 6 6 7 8 9 8 8 7 8 9 10 12 16 20 19 12 11 10 13 12 11 10 11 13 3 7 5 9 12 14 14 11 12 11
6 5 4 5 5 5 4 4 2 1 3 3 3 5 4 3 3 3 4 5 5 6 7 7 8 9 10 10 10 10 9 10 10 10 10 11 10 11 11 11 11 10 9 11 11 5 3 3 7 8 10 9 10 11
5 4 4 4 3 2 1 1 4 3 4 2 2 4 6 5 4 6 6 6 5 6 7 7 8 9 9 10 10 10 10 11 14 15 13 10 10 11 11 12 11 10 8 9 10 9 10 3 4 7 10 11 14 11
6 7 5 5 3 2 2 2 2 0 2 3 3 4 5 5 4 3 5 6 7 6 7 7 8 8 9 7 7 6 6 9 11 13 17 13 13 14 11 10 11 12 13 13 12 12 13 11 7 2 3 6 8 6
5 5 4 3 3 3 1 2 1 4 2 2 3 3 4 3 4 3 4 5 5 6 5 5 5 6 8 9 10 7 7 8 9 9 13 13 13 14 11 11 11 13 14 13 14 14 15 16 13 15 14 10 6 5
Wind_Direction
296 300 305 321 330 329 331 331 328 330 329 329 325 321 321 318 315 318 291 240 234 262 274 264 266 254 242 219 247 318 304 188 280 316 320 350 281 344 298 311 301 305 325 313 293 273 351 350 324 243 334 305 297 294
292 299 316 325 323 326 328 329 326 329 329 325 323 319 315 309 309 299 267 272 259 244 270 293 279 269 257 254 253 222 279 324 286 282 294 300 290 295 314 299 333 305 352 310 246 300 283 291 289 274 272 275 285 282
294 306 318 319 321 323 323 324 325 322 322 320 314 310 312 307 304 302 282 280 256 263 269 246 258 225 222 229 217 218 231 218 206 163 303 285 271 292 286 298 309 293 13 267 303 280 314 319 324 307 299 294 300 288
283 302 314 316 318 320 320 321 322 321 319 316 312 309 307 304 299 296 275 274 266 292 278 291 217 259 272 212 215 213 255 187 271 137 248 256 262 226 271 287 292 284 312 318 285 285 313 321 341 332 323 331 308 306
279 297 311 311 315 318 319 320 320 318 314 311 313 307 303 300 293 280 270 250 234 242 297 307 303 261 258 207 213 219 225 237 286 270 228 247 245 264 243 261 256 333 342 310 287 304 312 324 346 340 320 324 309 325
270 294 307 310 314 318 317 318 318 316 313 311 305 308 308 301 293 290 292 72 208 184 265 283 329 279 205 207 220 211 212 223 208 249 248 234 242 256 269 269 326 335 346 327 291 307 324 348 348 335 323 316 317 332
266 291 304 309 313 318 318 319 317 317 313 309 308 303 297 284 245 224 343 20 356 150 246 276 269 181 214 167 155 187 194 203 210 227 223 237 242 186 246 274 356 344 347 342 345 337 343 348 352 350 336 329 326 354
261 290 304 308 315 321 322 322 320 315 311 308 305 305 299 262 233 244 252 245 199 260 247 262 268 250 171 196 188 163 183 202 201 246 246 249 192 229 259 244 315 340 350 354 333 356 343 355 0 345 347 341 358 2
264 288 303 309 318 320 322 323 318 317 319 312 310 305 221 189 192 236 169 273 184 230 257 239 255 289 172 246 160 183 194 222 190 225 233 261 232 228 255 320 316 5 0 347 335 8 2 8 1 347 350 358 6 9
260 287 302 312 318 323 323 320 323 332 321 314 289 235 211 103 318 283 142 204 174 190 226 246 216 256 304 305 294 200 179 265 237 214 190 237 253 253 263 270 26 3 4 356 359 4 359 3 6 356 351 353 9 10
262 289 301 311 319 323 320 328 341 338 310 334 334 297 345 313 248 207 241 215 166 219 213 228 235 232 228 230 260 272 305 254 260 112 264 315 272 350 162 174 185 111 31 19 5 3 16 8 4 0 2 356 6 23
260 285 299 310 316 316 319 332 338 335 331 307 293 303 282 270 244 229 220 221 212 242 176 229 172 199 252 220 234 110 254 224 264 34 259 232 273 100 155 154 140 130 64 28 21 14 16 25 12 1 22 6 6 11
264 284 300 308 312 312 311 323 335 325 307 260 226 243 223 208 243 228 210 206 213 215 125 122 206 201 212 239 206 227 236 250 334 242 257 278 79 160 171 149 141 118 82 34 27 31 29 30 29 22 21 19 15 24
273 288 298 308 342 358 342 333 329 325 275 271 260 250 232 206 243 250 276 350 340 335 156 279 235 225 197 203 235 236 165 188 239 235 242 48 350 167 173 135 147 131 81 48 28 37 37 32 47 40 40 38 31 27
281 292 300 288 285 338 331 325 316 291 277 265 256 251 235 320 318 312 317 315 333 326 345 321 249 166 184 220 244 267 191 212 211 248 29 25 249 164 167 172 148 124 126 89 43 39 37 43 47 47 44 46 41 40
301 295 204 353 331 324 318 312 309 193 267 271 255 288 291 308 324 322 323 333 316 315 295 260 281 258 204 223 201 204 170 210 332 351 5 15 198 183 160 168 176 128 120 104 58 53 41 51 56 57 53 51 51 51
290 235 20 325 321 310 311 244 184 224 278 278 268 312 290 304 309 315 320 299 291 295 284 281 227 274 122 27 321 255 224 161 54 12 15 13 278 199 185 178 178 159 147 134 117 76 55 62 67 58 54 54 61 53
249 359 313 316 323 320 341 205 260 256 269 265 293 322 327 306 296 288 297 306 301 292 301 308 311 280 209 274 18 17 354 337 325 10 3 348 237 199 191 172 171 167 183 143 121 122 109 71 72 69 72 65 77 73
323 318 323 329 337 317 336 247 259 290 295 315 300 317 312 307 284 274 285 294 290 311 295 281 270 337 12 16 349 341 345 342 331 323 323 311 242 195 200 205 195 182 165 161 159 158 97 51 61 55 58 65 62 59
291 326 348 343 273 244 275 231 229 268 278 323 295 319 321 306 317 309 297 274 253 244 234 331 12 354 347 341 311 317 319 307 313 309 319 358 46 202 220 194 189 174 162 157 168 127 121 112 109 89 59 65 76 75
222 56 271 289 108 254 293 308 267 279 305 302 317 315 321 314 340 332 352 333 175 24 10 54 355 355 349 335 7 352 346 341 321 303 308 311 340 333 240 192 182 180 175 175 161 156 180 151 128 128 123 92 84 79
91 254 299 79 303 188 260 232 300 320 282 292 307 326 315 323 356 26 15 19 51 4 353 343 349 344 339 359 359 10 356 346 337 332 322 299 291 284 257 210 197 192 196 192 181 166 166 152 154 147 126 119 122 111
191 220 139 43 262 194 271 274 275 326 293 321 315 326 0 339 347 360 74 26 43 356 348 350 346 345 1 359 360 358 4 356 350 350 341 333 312 297 285 239 207 225 204 195 193 167 158 141 160 153 130 134 120 123
176 178 162 93 332 303 306 282 289 294 274 324 328 325 8 353 338 25 71 41 3 0 3 354 348 345 358 7 8 359 356 350 343 342 334 336 321 310 312 288 231 248 239 182 177 168 151 170 153 160 158 149 148 141
182 131 173 226 189 248 252 321 322 289 303 336 320 338 5 329 10 58 40 16 357 2 356 347 348 353 353 349 349 349 354 350 340 325 360 345 340 324 300 262 225 234 245 202 186 171 165 164 175 170 169 168 165 156
165 168 183 178 178 234 292 312 284 322 328 315 319 353 14 334 50 46 28 358 347 347 342 342 340 344 356 357 346 346 345 343 333 337 5 359 6 355 348 354 29 111 324 262 200 181 178 174 178 174 176 171 156 162
160 192 178 219 278 262 254 248 290 282 280 306 358 332 344 67 63 54 6 28 328 326 326 353 353 344 349 348 348 350 348 352 335 322 329 357 3 4 5 4 4 347 316 287 237 201 188 184 185 182 178 173 176 178
220 196 189 171 201 179 237 245 242 240 252 306 311 25 56 38 38 12 4 354 333 335 354 3 10 353 355 351 357 3 1 359 359 5 2 1 1 8 351 357 5 345 340 338 291 228 204 192 189 185 184 181 180 183
197 179 194 199 188 192 210 227 248 227 343 286 288 77 112 80 31 360 351 346 342 359 2 5 10 357 4 19 26 26 14 9 6 9 5 3 351 347 348 349 352 357 350 330 340 352 264 194 189 184 176 183 186 183
176 176 180 185 198 212 178 194 248 238 291 323 99 124 113 111 58 22 14 10 6 4 3 5 12 8 10 12 9 21 37 26 20 9 347 347 336 330 342 345 348 350 351 328 339 12 31 154 120 152 166 174 182 176
139 165 183 212 228 219 222 240 259 171 173 192 262 193 135 139 124 63 26 354 1 19 13 9 18 19 13 11 9 0 4 11 8 8 5 350 351 351 349 352 352 347 355 347 1 13 351 306 202 174 187 185 187 183
181 189 182 207 201 221 256 243 339 163 152 167 136 132 143 157 117 83 25 12 19 16 14 9 12 9 15 10 13 21 339 360 4 5 7 3 1 358 360 357 5 7 10 21 24 24 24 24 13 31 191 183 179 189
195 187 201 238 207 223 135 332 319 124 125 99 73 65 60 58 72 88 69 39 26 13 360 348 353 8 21 18 15 11 9 13 17 21 3 2 2 11 11 7 15 22 24 26 30 36 35 39 39 39 38 38 62 88